Regional Weather Roundup
Issued by NWS New Orleans/Baton Rouge, LA

Home | Current Version | Previous Version | Graphics & Text | Print | Product List | Glossary On
Versions: 1 2 3 4 5 6 7 8 9 10 11 12 13 14 15 16 17 18 19 20 21 22 23 24 25 26 27 28 29 30 31 32 33 34 35 36 37 38 39 40 41 42 43 44 45 46 47 48 49 50
071
ASUS44 KLIX 170905
RWRLIX
NEW ORLEANS REGIONAL WEATHER ROUNDUP
NATIONAL WEATHER SERVICE NEW ORLEANS LA
400 AM CDT THU APR 17 2014

NOTE: "FAIR" INDICATES FEW OR NO CLOUDS BELOW 12,000 FEET WITH NO
      SIGNIFICANT WEATHER AND/OR OBSTRUCTIONS TO VISIBILITY.
      SKY/WX - SKY CONDITION AND SIGNIFICANT WEATHER.
      TMP - AIR TEMPERATURE.     DP    - DEWPOINT TEMPERATURE.
      RH  - RELATIVE HUMIDITY.   PRES  - PRESSURE.
      HI  - HEAT INDEX.          WCI   - WIND CHILL INDEX.

*  THESE STATIONS ARE NOT NWS OR FAA STATIONS AND ARE NOT UNDER
   NWS QUALITY CONTROL.

LAZ038-040-048-061>063-065>067-069-171000-
SOUTHEAST LOUISIANA

CITY           SKY/WX    TMP DP  RH WIND       PRES   REMARKS
N.O. AUDUBON   NOT AVBL
N.O. INTL ARPT CLOUDY    56  49  77 NE5       30.11F
N.O. LAKEFRONT CLOUDY    59  53  80 E8        30.12F
N.O. DOWNTOWN* CLOUDY    59  46  63 CALM      30.11S
SLIDELL        MOCLDY    50  47  89 NE5       30.12F
BATON ROUGE    CLOUDY    50  45  83 CALM      30.15R
BOOTHVILLE     CLOUDY    60  53  77 SE3       30.11F
BELLE CHASSE   CLOUDY    54  49  83 NE3       30.10F
BOGALUSA*        N/A     45  42  91 N3        30.16S
GALLIANO*      CLOUDY    62  53  73 NE6       30.09F
NEW ROADS*     CLOUDY    47  45  93 CALM      30.15S
GONZALES*      CLOUDY    50  49  96 NW3       30.12S
HAMMOND*       CLOUDY    48  45  87 CALM      30.14S
HOUMA*           N/A     56  50  79 NE6       30.09S
PORT FOURCHON* CLOUDY    64  52  63 SE14G21   30.09F

$$

MSZ070-080>082-171000-
SOUTHERN MISSISSIPPI

CITY           SKY/WX    TMP DP  RH WIND       PRES   REMARKS
MCCOMB         PTCLDY    44  41  89 CALM      30.16R
GULFPORT       CLOUDY    53  47  79 NE5       30.14S
BILOXI         MOCLDY    51  49  90 E7        30.14F
PASCAGOULA     CLOUDY    50  48  93 NE6       30.15F

$$

COASTAL OBSERVATIONS
LAKE AND NEARSHORE STATIONS

STATION/POSITION TIME  TEMP    WIND        PRES    WAVE
                       AIR SEA DIR/SP/G            HT/PER
                 (UTC) (F)     (DEG/KT/KT) (MB)    (FT/S)
PASCAGOULA       0900   55      50/  8/ 13 1020.1
WAVELAND YACHT   0900   53 64   60/ 10/ 12 1019.4
GRAND ISLE       0900   63 66  130/  8/ 13 1019.3
SOUTHWEST PASS   0900   63 58  130/ 10/ 14 1019.4
NEW CANAL        0900   56 63   80/  4/  5 1019.8
SHELL BEACH      0900   62 61  120/  9/ 11 1019.3

OFFSHORE STATIONS

STATION/POSITION TIME  TEMP    WIND        PRES    WAVE
                       AIR SEA DIR/SP/G            HT/PER
                 (UTC) (F)     (DEG/KT/KT) (MB)    (FT/S)
64 S DAUPHIN ISL 0814   67 69  100/ 19/ 23 1019.4

$$




USA.gov is the U.S. government's official web portal to all federal, state and local government web resources and services.